When you browse on this site, cookies collect data to enhance your experience and personalize the content and advertising you see.
Visit our Privacy Policy to learn more. By continuing to use the site, you agree to this use of cookies and data.
  • In Deutschland
  • Länderverzeichnis
  • Für 7 Tage
  • Wassertemperatur
  • Wetterkarte
  • Widgets
  • user-avatar
    Anmelden

    Stündliche Wetter Tibissa

    Heute, 19 August, Montag

    Zeit Temperatur Niederschläge Wind Luftdruck Luftfeuchtigkeit
    00:00 +28°C° 0 mm 2 m/S 686 mmHg 34%
    01:00 +28°C° 0 mm 1 m/S 686 mmHg 37%
    02:00 +27°C° 0 mm 1 m/S 686 mmHg 37%
    03:00 +27°C° 0 mm 1 m/S 685 mmHg 37%
    04:00 +26°C° 0 mm 1 m/S 685 mmHg 37%
    05:00 +27°C° 0 mm 2 m/S 685 mmHg 35%
    06:00 +27°C° 0 mm 2 m/S 686 mmHg 33%
    07:00 +28°C° 0 mm 2 m/S 686 mmHg 31%
    08:00 +30°C° 0 mm 3 m/S 686 mmHg 28%
    09:00 +33°C° 0 mm 4 m/S 687 mmHg 24%
    10:00 +35°C° 0 mm 5 m/S 687 mmHg 21%
    11:00 +36°C° 0 mm 5 m/S 687 mmHg 19%
    12:00 +37°C° 0 mm 5 m/S 688 mmHg 17%
    13:00 +38°C° 0 mm 4 m/S 688 mmHg 15%
    14:00 +39°C° 0 mm 5 m/S 687 mmHg 15%
    15:00 +39°C° 0 mm 5 m/S 686 mmHg 15%
    16:00 +39°C° 0 mm 5 m/S 686 mmHg 15%
    17:00 +37°C° 0 mm 5 m/S 686 mmHg 17%
    18:00 +36°C° 0 mm 5 m/S 686 mmHg 19%
    19:00 +35°C° 0 mm 5 m/S 686 mmHg 21%
    20:00 +33°C° 0 mm 5 m/S 686 mmHg 26%
    21:00 +32°C° 0 mm 4 m/S 687 mmHg 31%
    22:00 +29°C° 0 mm 4 m/S 687 mmHg 37%
    23:00 +28°C° 0 mm 3 m/S 687 mmHg 42%

    Morgen, 20 August, Dienstag

    Zeit Temperatur Niederschläge Wind Luftdruck Luftfeuchtigkeit
    00:00 +27°C° 0 mm 2 m/S 686 mmHg 47%
    01:00 +26°C° 0 mm 1 m/S 686 mmHg 52%
    02:00 +26°C° 0 mm 1 m/S 686 mmHg 53%
    03:00 +25°C° 0 mm 1 m/S 686 mmHg 55%
    04:00 +25°C° 0 mm 1 m/S 685 mmHg 57%
    05:00 +25°C° 0 mm 2 m/S 686 mmHg 54%
    06:00 +25°C° 0 mm 2 m/S 686 mmHg 52%
    07:00 +25°C° 0 mm 2 m/S 686 mmHg 50%
    08:00 +28°C° 0 mm 3 m/S 686 mmHg 42%
    09:00 +30°C° 0 mm 3 m/S 687 mmHg 35%
    10:00 +33°C° 0 mm 4 m/S 687 mmHg 28%
    11:00 +34°C° 0 mm 4 m/S 687 mmHg 24%
    12:00 +36°C° 0 mm 4 m/S 687 mmHg 21%
    13:00 +37°C° 0 mm 5 m/S 687 mmHg 18%
    14:00 +39°C° 0 mm 5 m/S 687 mmHg 16%
    15:00 +39°C° 0 mm 6 m/S 687 mmHg 15%
    16:00 +40°C° 0 mm 6 m/S 687 mmHg 13%
    17:00 +38°C° 0 mm 6 m/S 686 mmHg 16%
    18:00 +36°C° 0 mm 6 m/S 686 mmHg 18%
    19:00 +35°C° 0 mm 6 m/S 686 mmHg 21%
    20:00 +33°C° 0 mm 4 m/S 687 mmHg 28%
    21:00 +30°C° 0 mm 3 m/S 687 mmHg 35%
    22:00 +28°C° 0 mm 1 m/S 687 mmHg 42%
    23:00 +28°C° 0 mm 1 m/S 687 mmHg 45%

    übermorgen, 21 August, Mittwoch

    Zeit Temperatur Niederschläge Wind Luftdruck Luftfeuchtigkeit
    00:00 +27°C° 0 mm 1 m/S 687 mmHg 47%
    01:00 +26°C° 0 mm 1 m/S 687 mmHg 49%
    02:00 +26°C° 0 mm 1 m/S 687 mmHg 50%
    03:00 +25°C° 0 mm 1 m/S 686 mmHg 51%
    04:00 +25°C° 0 mm 1 m/S 686 mmHg 52%
    05:00 +25°C° 0 mm 1 m/S 686 mmHg 50%
    06:00 +25°C° 0 mm 1 m/S 687 mmHg 48%
    07:00 +24°C° 0 mm 0 m/S 687 mmHg 46%
    08:00 +27°C° 0 mm 1 m/S 687 mmHg 42%
    09:00 +29°C° 0 mm 1 m/S 688 mmHg 37%
    10:00 +30°C° 0 mm 1 m/S 688 mmHg 33%
    11:00 +32°C° 0 mm 2 m/S 688 mmHg 30%
    12:00 +34°C° 0 mm 2 m/S 688 mmHg 27%
    13:00 +35°C° 0 mm 2 m/S 688 mmHg 24%
    14:00 +36°C° 0 mm 3 m/S 688 mmHg 23%
    15:00 +36°C° 0 mm 3 m/S 687 mmHg 22%
    16:00 +36°C° 0 mm 4 m/S 687 mmHg 21%
    17:00 +35°C° 0 mm 4 m/S 687 mmHg 24%
    18:00 +34°C° 0 mm 4 m/S 687 mmHg 27%
    19:00 +33°C° 0 mm 4 m/S 687 mmHg 30%
    20:00 +32°C° 0 mm 4 m/S 687 mmHg 41%
    21:00 +29°C° 0 mm 4 m/S 688 mmHg 51%
    22:00 +27°C° 0 mm 4 m/S 688 mmHg 62%
    23:00 +26°C° 0 mm 4 m/S 688 mmHg 64%

    22 August, Donnerstag

    Zeit Temperatur Niederschläge Wind Luftdruck Luftfeuchtigkeit
    00:00 +26°C° 0 mm 3 m/S 687 mmHg 66%
    01:00 +25°C° 0 mm 2 m/S 687 mmHg 68%
    02:00 +25°C° 0 mm 2 m/S 687 mmHg 71%
    03:00 +24°C° 0 mm 2 m/S 687 mmHg 74%
    04:00 +24°C° 0 mm 1 m/S 687 mmHg 77%
    05:00 +23°C° 0 mm 1 m/S 687 mmHg 77%
    06:00 +23°C° 0 mm 1 m/S 687 mmHg 78%
    07:00 +23°C° 0 mm 1 m/S 687 mmHg 79%
    08:00 +25°C° 0 mm 1 m/S 688 mmHg 70%
    09:00 +26°C° 0 mm 1 m/S 688 mmHg 62%
    10:00 +27°C° 0 mm 1 m/S 689 mmHg 53%
    11:00 +29°C° 0 mm 2 m/S 689 mmHg 48%
    12:00 +30°C° 0 mm 2 m/S 689 mmHg 44%
    13:00 +33°C° 0 mm 3 m/S 689 mmHg 39%
    14:00 +31°C° 0.3 mm 3 m/S 688 mmHg 40%
    15:00 +31°C° 0.3 mm 3 m/S 688 mmHg 42%
    16:00 +32°C° 0.3 mm 4 m/S 687 mmHg 44%
    17:00 +29°C° 1.8 mm 3 m/S 687 mmHg 50%
    18:00 +27°C° 1.8 mm 3 m/S 687 mmHg 57%
    19:00 +26°C° 1.8 mm 3 m/S 687 mmHg 63%
    20:00 +25°C° 0.7 mm 3 m/S 687 mmHg 65%
    21:00 +25°C° 0.7 mm 3 m/S 688 mmHg 67%
    22:00 +25°C° 0.7 mm 2 m/S 688 mmHg 69%
    23:00 +24°C° 0 mm 2 m/S 688 mmHg 70%

    23 August, Freitag

    Zeit Temperatur Niederschläge Wind Luftdruck Luftfeuchtigkeit
    00:00 +24°C° 0 mm 2 m/S 687 mmHg 72%
    01:00 +24°C° 0 mm 2 m/S 687 mmHg 74%
    02:00 +23°C° 0 mm 1 m/S 687 mmHg 75%
    03:00 +23°C° 0 mm 1 m/S 687 mmHg 77%
    04:00 +23°C° 0 mm 1 m/S 687 mmHg 78%
    05:00 +23°C° 0.1 mm 1 m/S 687 mmHg 78%
    06:00 +23°C° 0.1 mm 1 m/S 687 mmHg 78%
    07:00 +23°C° 0.1 mm 1 m/S 687 mmHg 78%
    08:00 +24°C° 0.1 mm 1 m/S 687 mmHg 70%
    09:00 +26°C° 0.1 mm 1 m/S 688 mmHg 61%
    10:00 +28°C° 0.1 mm 1 m/S 688 mmHg 53%
    11:00 +29°C° 0 mm 2 m/S 688 mmHg 48%
    12:00 +30°C° 0 mm 3 m/S 688 mmHg 42%
    13:00 +33°C° 0 mm 3 m/S 688 mmHg 37%
    14:00 +31°C° 0.5 mm 3 m/S 687 mmHg 40%
    15:00 +30°C° 0.5 mm 3 m/S 686 mmHg 42%
    16:00 +30°C° 0.5 mm 3 m/S 686 mmHg 44%
    17:00 +29°C° 1.2 mm 3 m/S 686 mmHg 50%
    18:00 +27°C° 1.2 mm 3 m/S 685 mmHg 56%
    19:00 +26°C° 1.2 mm 3 m/S 685 mmHg 61%
    20:00 +26°C° 0.3 mm 3 m/S 686 mmHg 60%
    21:00 +26°C° 0.3 mm 2 m/S 686 mmHg 58%
    22:00 +26°C° 0.3 mm 1 m/S 686 mmHg 56%
    23:00 +26°C° 0 mm 1 m/S 686 mmHg 57%

    24 August, Samstag

    Zeit Temperatur Niederschläge Wind Luftdruck Luftfeuchtigkeit
    00:00 +26°C° 0 mm 1 m/S 686 mmHg 58%
    01:00 +25°C° 0 mm 1 m/S 686 mmHg 59%
    02:00 +25°C° 0 mm 1 m/S 685 mmHg 61%
    03:00 +24°C° 0 mm 1 m/S 685 mmHg 63%
    04:00 +24°C° 0 mm 1 m/S 685 mmHg 65%
    05:00 +24°C° 0 mm 1 m/S 685 mmHg 64%
    06:00 +24°C° 0 mm 1 m/S 685 mmHg 64%
    07:00 +24°C° 0 mm 1 m/S 686 mmHg 64%
    08:00 +25°C° 0.1 mm 1 m/S 686 mmHg 59%
    09:00 +27°C° 0.1 mm 1 m/S 686 mmHg 53%
    10:00 +28°C° 0.1 mm 1 m/S 687 mmHg 47%
    11:00 +29°C° 0.1 mm 2 m/S 686 mmHg 44%
    12:00 +30°C° 0.1 mm 2 m/S 686 mmHg 41%
    13:00 +31°C° 0.1 mm 2 m/S 686 mmHg 38%
    14:00 +30°C° 0.8 mm 3 m/S 686 mmHg 43%
    15:00 +29°C° 0.8 mm 3 m/S 685 mmHg 48%
    16:00 +28°C° 0.8 mm 3 m/S 685 mmHg 54%
    17:00 +27°C° 0.5 mm 3 m/S 685 mmHg 55%
    18:00 +27°C° 0.5 mm 3 m/S 685 mmHg 57%
    19:00 +26°C° 0.5 mm 3 m/S 685 mmHg 59%
    20:00 +26°C° 0 mm 2 m/S 685 mmHg 60%
    21:00 +25°C° 0 mm 2 m/S 685 mmHg 61%
    22:00 +25°C° 0 mm 1 m/S 686 mmHg 63%
    23:00 +25°C° 0 mm 1 m/S 686 mmHg 64%
    Mehr zeigen